sat.trackr.live / text

‹ back to catalog

STARLINK-3229

NORAD 49751 · 2021-115AD

PAYLOAD ACTIVE UNKNOWN

§ Identity

Operator
Country
US
Launch date
2021-12-02
Launch site
AFETR
Launch vehicle
Mass (kg)
RCS (m²)

Purposes: comms

External: N2YO · Heavens-Above · Gunter

§ Orbital elements

Epoch: 2026-05-25T01:59:34.681920Z

Period
95.44 min
Inclination
53.2123°
Eccentricity
0.0001355
Mean motion
15.08837233 rev/d
Perigee alt
538.8 km
Apogee alt
540.7 km
Semi-major
6,917.9 km
B*
-1.2557e-5
RAAN
166.1014°
Arg perigee
84.2781°
Mean anomaly
275.8365°
Rev number
24,707

§ Raw data

STARLINK-32291 49751U 21115AD  26145.08304030 -.00000488  00000+0 -12557-4 0  99972 49751  53.2123 166.1014 0001355  84.2781 275.8365 15.08837233247073

JSON: /api/v1/satellites/49751 · /tle

For live sub-satellite position, see the globe view (requires WebGL).

§ Visibility from observer

Set your observer location to see the next 7 days of passes ≥ 10°. The values pass through the URL so the page stays shareable.

No JS? Fill the form by hand. The geolocation button needs JavaScript.